Hamilton Island, Australia

2:50 PM AEST on April 21, 2018 (GMT +1000)
Hamilton Island

Weather History for YBHM - November, 2011

Change the Weather History Date:

Friday, November 4, 2011

  Actual Average Record
Temperature  
Mean Temperature 75 °F -  
Max Temperature 80 °F - - ()
Min Temperature 70 °F - - ()
Cooling Degree Days 10    
Growing Degree Days 25 (Base 50)    
Moisture  
Dew Point 65 °F    
Average Humidity 70    
Maximum Humidity 88    
Minimum Humidity 49    
Precipitation  
Precipitation 0.00 in - - ()
Sea Level Pressure  
Sea Level Pressure 29.90 in    
Wind  
Wind Speed 8 mph ()    
Max Wind Speed 18 mph    
Max Gust Speed -    
T = Trace of Precipitation, MM = Missing Value Source: Averaged Metar Reports

Daily Weather History Graph

Daily Weather History Graph

Search for Another Location

Airport or City:

Astronomy

Nov. 04, 2011 Rise Set
Actual Time 5:21 AM AEST 6:14 PM AEST
Civil Twilight 4:57 AM AEST 6:37 PM AEST
Nautical Twilight 4:30 AM AEST 7:05 PM AEST
Astronomical Twilight 4:02 AM AEST 7:32 PM AEST
Moon 12:54 PM AEST (11/4) 12:58 AM AEST (11/4)
Length of Visible Light 13h 39m
Length of Day
12h 53m
Waxing Gibbous, 64% of the Moon is Illuminated
Nov 4
Waxing Gibbous
Nov 11
Full
Nov 19
Last Quarter
Nov 25
New
Dec 2
First Quarter

Hourly Weather History & Observations

Time (AEST) Temp. Heat Index Dew Point Humidity Pressure Visibility Wind Dir Wind Speed Gust Speed Precip Events Conditions
12:00 AM 71 °F - 66 °F 81% 29.90 in - NW 5.8 mph - -  
12:00 AM 71.6 °F - 66.2 °F 83% 29.89 in - NW 5.8 mph - N/A   Unknown
1:00 AM 71.6 °F - 66.2 °F 83% 29.89 in - NW 4.6 mph - N/A   Unknown
2:00 AM 71.6 °F - 66.2 °F 83% 29.86 in - NW 6.9 mph - N/A   Unknown
3:00 AM 71 °F - 64 °F 74% 29.86 in - NW 5.8 mph - -  
3:00 AM 71.6 °F - 64.4 °F 78% 29.86 in - NW 5.8 mph - N/A   Unknown
4:00 AM 69.8 °F - 64.4 °F 83% 29.86 in - NW 4.6 mph - N/A   Unknown
5:00 AM 69.8 °F - 66.2 °F 88% 29.89 in - NW 4.6 mph - N/A   Unknown
6:00 AM 71 °F - 66 °F 80% 29.90 in - Calm Calm - -  
6:00 AM 71.6 °F - 66.2 °F 83% 29.89 in - Calm Calm - N/A   Unknown
7:00 AM 75.2 °F - 64.4 °F 69% 29.92 in - Calm Calm - N/A   Unknown
8:00 AM 78.8 °F - 66.2 °F 65% 29.92 in - ESE 8.1 mph - N/A   Unknown
9:00 AM 79 °F - 64 °F 52% 29.93 in - SE 10.4 mph - -  
9:00 AM 78.8 °F - 66.2 °F 65% 29.92 in - SE 10.4 mph - N/A   Unknown
10:00 AM 80.6 °F 82.7 °F 66.2 °F 61% 29.92 in - ESE 12.7 mph - N/A   Unknown
11:00 AM 78.8 °F - 64.4 °F 61% 29.92 in - ESE 16.1 mph - N/A   Unknown
12:00 PM 79 °F - 63 °F 49% 29.91 in - ESE 15.0 mph - -  
12:00 PM 80.6 °F 82.7 °F 66.2 °F 61% 29.92 in - ESE 15.0 mph - N/A   Unknown
1:00 PM 78.8 °F - 64.4 °F 61% 29.89 in - East 17.3 mph - N/A   Unknown
2:00 PM 78.8 °F - 66.2 °F 65% 29.89 in - East 18.4 mph - N/A   Unknown
3:00 PM 78 °F - 65 °F 57% 29.88 in - East 16.1 mph - -  
3:00 PM 78.8 °F - 64.4 °F 61% 29.86 in - East 16.1 mph - N/A   Unknown
4:00 PM 77.0 °F - 64.4 °F 65% 29.89 in - ESE 13.8 mph - N/A   Unknown
5:00 PM 77.0 °F - 64.4 °F 65% 29.89 in - East 13.8 mph - N/A   Unknown
6:00 PM 75.2 °F - 66.2 °F 73% 29.92 in - East 11.5 mph - N/A   Unknown
7:00 PM 75.2 °F - 66.2 °F 73% 29.92 in - ENE 9.2 mph - N/A   Unknown
8:00 PM 75.2 °F - 64.4 °F 69% 29.95 in - East 8.1 mph - N/A   Unknown
9:00 PM 75 °F - 66 °F 67% 29.94 in - East 11.5 mph - -  
9:00 PM 75.2 °F - 66.2 °F 73% 29.95 in - East 11.5 mph - N/A   Unknown
10:00 PM 75.2 °F - 64.4 °F 69% 29.95 in - East 12.7 mph - N/A   Unknown
11:00 PM 75.2 °F - 64.4 °F 69% 29.95 in - East 12.7 mph - N/A   Unknown